[[{"header":{"parameterUnit":"m.s-1","parameterCategory":1,"la1":30.2991,"la2":30.254,"lo1":-89.0895,"lo2":-89.0444,"dy":0.0017,"dx":0.0017,"nx":28,"ny":28,"refTime":"2025-04-19T09:00:00:Z","depth":0,"parameterNumber":2,"parameterNumberName":"U-component_of_WINDS"},"data":[0,0,0,0,0,0,0,0,0,0,0,0,0,0,0,0,0,0,0,0,0,0,0,0,0,0,0,0,0,0,0,0,0,0,0,0,0,0,0,0,0,0,0,0,0,0,0,0,0,0,0,0,0,0,0,0,0,0,-4.6153,-4.6154,0,-4.6294,-4.6295,-4.6297,-4.627,-4.6268,-4.6265,-4.6263,-4.6408,-4.6414,-4.642,0,0,0,0,0,0,0,0,0,0,0,0,0,-4.5861,-4.5867,-4.6152,-4.6154,-4.6156,-4.6293,-4.6295,-4.6297,-4.6271,-4.6268,-4.6265,-4.6262,-4.6406,-4.6413,-4.6421,0,0,0,0,0,0,0,0,0,0,0,0,0,-4.5994,-4.5868,-4.6152,-4.6159,-4.6161,-4.6293,-4.6295,-4.6298,-4.6271,-4.6268,-4.6264,-4.626,-4.6403,-4.6413,-4.6422,-4.6555,0,0,-4.645,-4.6454,0,0,0,0,0,0,0,0,-4.5986,-4.6004,-4.6156,-4.6159,-4.6161,-4.626,-4.6246,-4.6384,-4.6272,-4.623,-4.6263,-4.6258,-4.6362,-4.6374,-4.6409,-4.6562,-4.6568,-4.6451,-4.6457,-4.6461,-4.6463,0,0,0,0,0,0,0,-4.5977,-4.5998,-4.6208,-4.6159,-4.6162,-4.6156,-4.617,-4.6272,-4.6315,-4.6233,-4.6231,-4.6249,-4.6363,-4.64,-4.6413,-4.657,-4.6451,-4.6459,-4.6465,-4.6469,-4.684,-4.6845,0,0,0,0,0,0,-4.5965,-4.5991,-4.6204,-4.6212,-4.6063,-4.6164,-4.6181,-4.6233,-4.6314,-4.6323,-4.6252,-4.6247,-4.6386,-4.6402,-4.6418,-4.6579,-4.6461,-4.6469,-4.6475,-4.6836,-4.6841,-4.6846,0,0,0,0,0,0,-4.5959,-4.5985,-4.6198,-4.6101,-4.6128,-4.6173,-4.6232,-4.6237,-4.6275,-4.6328,-4.6336,-4.6282,-4.6384,-4.6404,-4.6521,-4.6584,-4.6474,-4.6482,-4.6831,-4.6838,-4.6844,-4.6903,0,0,0,0,0,0,-4.5951,-4.5982,-4.6033,-4.6103,-4.6133,-4.6299,-4.6236,-4.6243,-4.6291,-4.6286,-4.6359,-4.6367,-4.6383,-4.6508,-4.6531,-4.6594,-4.6489,-4.6826,-4.6834,-4.6842,-4.6895,-4.691,-4.6923,0,0,0,0,0,-4.5941,-4.6044,-4.6036,-4.6062,-4.6197,-4.6303,-4.632,-4.6336,-4.6296,-4.6348,-4.6382,-4.6365,-4.6574,-4.652,-4.6545,-4.6613,-4.6822,-4.6832,-4.6841,-4.6889,-4.6907,-4.6923,0,0,0,0,0,0,-4.5981,-4.6053,-4.6045,-4.6174,-4.6232,-4.6298,-4.6363,-4.6354,-4.6425,-4.6418,-4.6434,-4.6451,-4.6569,-4.6603,-4.6542,-4.6747,-4.6692,-4.6707,-4.672,-4.6738,-4.6751,-4.674,-4.6497,0,0,0,0,0,-4.6005,-4.6084,-4.6143,-4.6251,-4.6281,-4.6318,-4.6364,-4.6371,-4.6432,-4.6457,-4.6499,-4.656,-4.6639,-4.6691,-4.6766,-4.6901,-4.6916,-4.6961,-4.6974,-4.6986,-4.6998,-4.7072,-4.7092,-4.6878,-4.6878,-4.6877,0,0,-4.6055,-4.6104,-4.6153,-4.6261,-4.6307,-4.6389,-4.6338,-4.6427,-4.6488,-4.647,-4.6582,-4.6617,-4.6685,-4.6812,-4.6869,-4.6843,-4.7061,-4.6998,-4.7006,-4.7013,-4.7084,-4.7104,-4.7122,-4.6884,-4.6883,-4.6882,0,0,-4.6187,-4.6233,-4.6328,-4.6376,-4.6446,-4.647,-4.6493,-4.6561,-4.6582,-4.6696,-4.6684,-4.6758,-4.6894,-4.6943,-4.6986,-4.7139,-4.7126,-4.7164,-4.7236,-4.7307,-4.7324,-4.7339,-4.7393,-4.7412,-4.7176,-4.7177,-4.7177,0,-4.624,-4.6363,-4.6378,-4.6468,-4.6516,-4.6504,-4.6601,-4.6646,-4.6738,-4.6772,-4.6742,-4.6913,-4.6958,-4.7096,-4.7133,-4.7169,-4.7195,-4.7154,-4.7321,-4.7336,-4.735,-4.7402,-4.7422,-4.7181,-4.718,-4.718,-4.7179,0,-4.6424,-4.651,-4.6578,-4.6667,-4.6723,-4.6816,-4.6845,-4.69,-4.6903,-4.693,-4.7047,-4.7101,-4.7188,-4.7222,-4.7225,-4.736,-4.7342,-4.7317,-4.7261,-4.7374,-4.7423,-4.7443,-4.7186,-4.7185,-4.7184,-4.7183,0,0,-4.6584,-4.6681,-4.6706,-4.6746,-4.6824,-4.689,-4.6984,-4.7068,-4.7115,-4.718,-4.7257,-4.7374,-4.7351,-4.74,-4.7409,-4.7473,-4.759,-4.7439,-4.7441,-4.7464,-4.7742,-4.7759,-4.7782,-4.7583,-4.7587,-4.759,-4.7736,0,-4.6723,-4.6886,-4.6903,-4.7049,-4.7128,-4.7119,-4.72,-4.7257,-4.7286,-4.7357,-4.7389,-4.7471,-4.7435,-4.7464,-4.7527,-4.7562,-4.7646,-4.7553,-4.7655,-4.7659,-4.7636,-4.7808,-4.7826,-4.7961,-4.7755,-4.7758,-4.7761,0,-4.6906,-4.6975,-4.7129,-4.7196,-4.723,-4.7302,-4.7382,-4.7451,-4.7516,-4.7532,-4.7587,-4.7589,-4.7686,-4.7629,-4.7762,-4.7698,-4.7742,-4.7766,-4.7772,-4.778,-4.7715,-4.7819,-4.8005,-4.8024,-4.7791,-4.7789,-4.7786,0,-4.7005,-4.7138,-4.7246,-4.7282,-4.7363,-4.7414,-4.7451,-4.7512,-4.7562,-4.7632,-4.7665,-4.7746,-4.779,-4.7852,-4.7876,-4.7833,-4.8008,-4.7953,-4.8024,-4.8024,-4.806,-4.8057,-4.8253,-4.8091,-4.8091,-4.809,-4.809,0,-4.7157,-4.7251,-4.7292,-4.7359,-4.7464,-4.7485,-4.7589,-4.7623,-4.7678,-4.7752,-4.775,-4.782,-4.7847,-4.7922,-4.7941,-4.8048,-4.8069,-4.8085,-4.8088,-4.8084,-4.8081,-4.8111,-4.8101,-4.8096,-4.8094,-4.8093,-4.8092,0,-4.7285,-4.7316,-4.7434,-4.7502,-4.7522,-4.7597,-4.7655,-4.772,-4.7749,-4.7842,-4.7865,-4.791,-4.7997,-4.8028,-4.8134,-4.8147,-4.8272,-4.8268,-4.8249,-4.825,-4.8318,-4.8311,-4.8539,-4.8569,-4.8389,-4.839,-4.8392,0,-4.7378,-4.7451,-4.7527,-4.7576,-4.7614,-4.7694,-4.7745,-4.7769,-4.7822,-4.7902,-4.7958,-4.8045,-4.8115,-4.8255,-4.8298,-4.8379,-4.8377,-4.8451,-4.8389,-4.8382,-4.8376,-4.8371,-4.8378,-4.8462,-4.8464,-4.8465,-4.8467,0,-4.7542,-4.7554,-4.7627,-4.7707,-4.7769,-4.7833,-4.7895,-4.7935,-4.7968,-4.8029,-4.8118,-4.8173,-4.8281,-4.8368,-4.8451,-4.8489,-4.8484,-4.8486,-4.8507,-4.8502,-4.8487,-4.8495,-4.8279,-4.848,-4.8479,-4.8478,-4.8477,-4.8477,-4.7654,-4.7718,-4.7782,-4.7864,-4.7913,-4.7972,-4.8036,-4.8073,-4.8148,-4.8237,-4.8247,-4.8343,-4.8408,-4.852,-4.8562,-4.8638,-4.8617,-4.8647,-4.8655,-4.8661,-4.8666,-4.8477,-4.8654,-4.8653,-4.8653,-4.8653,-4.8652,0,-4.7816,-4.7857,-4.7933,-4.802,-4.8085,-4.8074,-4.8143,-4.8198,-4.8282,-4.8343,-4.8413,-4.8516,-4.86,-4.8649,-4.8734,-4.8785,-4.8785,-4.8806,-4.8802,-4.8811,-4.868,-4.8653,-4.8805,-4.8805,-4.8805,-4.8805,-4.8805,-4.8805,-4.7908,-4.8015,-4.8035,-4.8167,-4.8208,-4.8301,-4.8341,-4.8395,-4.8443,-4.8558,-4.8628,-4.866,-4.8717,-4.8805,-4.8882,-4.8895,-4.8925,-4.8949,-4.8959,-4.8836,-4.882,-4.8805,-4.8779,-4.8956,-4.8956,-4.9084,-4.9085,-4.9086]},{"header":{"parameterUnit":"m.s-1","parameterCategory":1,"la1":30.2991,"la2":30.254,"lo1":-89.0895,"lo2":-89.0444,"dy":0.0017,"dx":0.0017,"nx":28,"ny":28,"refTime":"2025-04-19T09:00:00:Z","depth":0,"parameterNumber":3,"parameterNumberName":"V-component_of_WINDS"},"data":[0,0,0,0,0,0,0,0,0,0,0,0,0,0,0,0,0,0,0,0,0,0,0,0,0,0,0,0,0,0,0,0,0,0,0,0,0,0,0,0,0,0,0,0,0,0,0,0,0,0,0,0,0,0,0,0,0,0,3.2024,3.2024,0,3.2057,3.2058,3.2058,3.2035,3.2034,3.2033,3.2032,3.2063,3.2065,3.2067,0,0,0,0,0,0,0,0,0,0,0,0,0,3.1937,3.1939,3.2024,3.2024,3.2025,3.2057,3.2058,3.2058,3.2035,3.2034,3.2033,3.2032,3.2063,3.2065,3.2067,0,0,0,0,0,0,0,0,0,0,0,0,0,3.1973,3.194,3.2024,3.2017,3.2017,3.2057,3.2058,3.2058,3.2036,3.2034,3.2033,3.2031,3.2062,3.2065,3.2067,3.2115,0,0,3.2076,3.2077,0,0,0,0,0,0,0,0,3.1971,3.1976,3.2018,3.2018,3.2018,3.2041,3.2039,3.2077,3.2036,3.2028,3.2032,3.203,3.2057,3.206,3.2069,3.2116,3.2118,3.2076,3.2077,3.2079,3.2079,0,0,0,0,0,0,0,3.1969,3.1975,3.2037,3.2018,3.2018,3.2012,3.2015,3.2046,3.2051,3.2029,3.2027,3.2032,3.2056,3.2067,3.207,3.2118,3.2076,3.2078,3.208,3.2081,3.2206,3.2208,0,0,0,0,0,0,3.1967,3.1973,3.2036,3.2038,3.199,3.2015,3.2018,3.2035,3.205,3.2051,3.2033,3.2031,3.2063,3.2067,3.2071,3.2128,3.2079,3.2081,3.2083,3.2204,3.2207,3.2208,0,0,0,0,0,0,3.1966,3.1973,3.2034,3.2005,3.2012,3.2018,3.2036,3.2036,3.2047,3.2054,3.2054,3.2043,3.2062,3.2067,3.2104,3.2129,3.2082,3.2085,3.2202,3.2205,3.2207,3.2242,0,0,0,0,0,0,3.1963,3.1973,3.1991,3.2006,3.2014,3.2068,3.2038,3.2038,3.2052,3.2049,3.2063,3.2064,3.2061,3.2101,3.2107,3.2132,3.2087,3.22,3.2204,3.2207,3.2239,3.2246,3.2251,0,0,0,0,0,3.196,3.1999,3.1992,3.2,3.2038,3.207,3.2074,3.2071,3.2054,3.2072,3.2077,3.2063,3.2125,3.2105,3.2112,3.2137,3.2199,3.2203,3.2206,3.2236,3.2244,3.2251,0,0,0,0,0,0,3.1985,3.2,3.1993,3.2038,3.2053,3.2066,3.2089,3.208,3.2099,3.2096,3.209,3.2094,3.2133,3.2139,3.2116,3.2185,3.2159,3.2165,3.2179,3.2187,3.2193,3.2191,3.2089,0,0,0,0,0,3.1996,3.2022,3.2033,3.2072,3.208,3.2083,3.2097,3.2094,3.2108,3.2114,3.2121,3.2135,3.2158,3.2173,3.2194,3.224,3.2243,3.2261,3.2267,3.2273,3.2277,3.2303,3.2311,3.2221,3.2221,3.2221,0,0,3.2018,3.203,3.2046,3.2077,3.2088,3.2114,3.2088,3.2117,3.2136,3.2118,3.2154,3.216,3.2175,3.2217,3.2236,3.2224,3.2303,3.2277,3.2282,3.2283,3.2307,3.2316,3.2323,3.2224,3.2223,3.2223,0,0,3.2073,3.2084,3.2118,3.213,3.2148,3.215,3.2158,3.2173,3.2177,3.2213,3.22,3.2223,3.2262,3.2273,3.2284,3.2345,3.2333,3.2352,3.2384,3.2409,3.2416,3.2422,3.2444,3.2452,3.2357,3.2357,3.2357,0,3.2098,3.2138,3.2136,3.2166,3.218,3.2166,3.22,3.2211,3.2235,3.2244,3.223,3.228,3.2289,3.2334,3.2349,3.2358,3.2367,3.235,3.2416,3.2422,3.2428,3.2448,3.2456,3.2359,3.2359,3.2358,3.2358,0,3.2168,3.2196,3.2221,3.2246,3.2262,3.2294,3.2296,3.2313,3.2309,3.2312,3.235,3.2361,3.2384,3.2395,3.239,3.2439,3.2431,3.2416,3.2391,3.2438,3.2458,3.2466,3.2362,3.2361,3.236,3.236,0,0,3.2238,3.2263,3.2272,3.2283,3.2303,3.2324,3.2355,3.2379,3.2394,3.2411,3.2437,3.2471,3.2458,3.247,3.2467,3.2489,3.2536,3.2471,3.2472,3.2483,3.2592,3.2603,3.2612,3.2529,3.2531,3.2532,3.2591,0,3.2294,3.2349,3.2349,3.24,3.2426,3.2414,3.2441,3.2456,3.246,3.2482,3.2487,3.2511,3.2492,3.25,3.2521,3.2526,3.2558,3.2522,3.2553,3.2554,3.2549,3.2622,3.2633,3.2688,3.2598,3.2599,3.26,0,3.2366,3.2387,3.2441,3.2458,3.2469,3.2493,3.2516,3.2538,3.2554,3.2556,3.2571,3.2564,3.2595,3.2569,3.2612,3.2587,3.26,3.2605,3.2607,3.2609,3.258,3.2627,3.2706,3.2714,3.2612,3.2611,3.261,0,3.2412,3.2454,3.2492,3.2502,3.2522,3.254,3.2549,3.2564,3.2579,3.2599,3.2608,3.2631,3.2643,3.2661,3.266,3.2641,3.2704,3.2677,3.2706,3.2706,3.2719,3.2718,3.2801,3.2727,3.2727,3.2727,3.2727,0,3.2474,3.2508,3.2513,3.2536,3.2574,3.2573,3.261,3.2617,3.2631,3.2655,3.2645,3.2668,3.2666,3.2689,3.2689,3.2725,3.273,3.2732,3.2732,3.2733,3.2733,3.2741,3.2737,3.2729,3.2729,3.2728,3.2728,0,3.2532,3.2537,3.2578,3.2594,3.2599,3.2626,3.264,3.2662,3.2666,3.2697,3.2704,3.271,3.2737,3.2738,3.2768,3.2768,3.2812,3.2807,3.2807,3.2806,3.2834,3.2832,3.2925,3.2938,3.2856,3.2857,3.2857,0,3.2571,3.2597,3.2617,3.2633,3.2644,3.267,3.2686,3.2686,3.2703,3.2724,3.2743,3.2769,3.279,3.2833,3.284,3.2863,3.2858,3.289,3.2862,3.2863,3.2859,3.2858,3.286,3.2895,3.2896,3.2897,3.2897,0,3.2641,3.2642,3.2666,3.2691,3.2711,3.273,3.2748,3.2762,3.2764,3.2783,3.2811,3.2827,3.2859,3.2885,3.2908,3.2916,3.2907,3.2906,3.2914,3.2916,3.2915,3.2916,3.2822,3.2904,3.2903,3.2903,3.2902,3.2902,3.269,3.2713,3.2732,3.2759,3.2773,3.279,3.2812,3.282,3.2843,3.287,3.2868,3.2899,3.2915,3.2945,3.2956,3.2979,3.2969,3.298,3.2983,3.2985,3.2989,3.2911,3.2983,3.2983,3.2983,3.2983,3.2983,0,3.276,3.2771,3.2796,3.2823,3.2844,3.2835,3.2855,3.2873,3.2901,3.2917,3.2939,3.2971,3.2996,3.3005,3.303,3.3047,3.3044,3.3054,3.3052,3.3054,3.2997,3.2988,3.3056,3.3056,3.3056,3.3056,3.3056,3.3056,3.2798,3.2837,3.2841,3.2886,3.2897,3.2928,3.2941,3.2956,3.297,3.3007,3.3028,3.3035,3.3048,3.3074,3.3096,3.3098,3.3108,3.312,3.312,3.3066,3.3058,3.3051,3.3043,3.3122,3.3122,3.3176,3.3176,3.3177]}]]